Regional Weather Roundup
Issued by NWS

Home | Current Version | Previous Version | Text Only | Print | Product List | Glossary Off
Versions: 1 2 3 4 5 6 7 8 9 10 11 12 13 14 15 16 17 18 19 20 21 22 23 24 25 26 27 28 29 30 31 32 33 34 35 36 37 38 39 40 41 42 43 44 45 46 47 48 49 50

000
ASUS45 KABQ 240101
RWRNM
NEW MEXICO REGIONAL WEATHER ROUNDUP
NATIONAL WEATHER SERVICE ALBUQUERQUE NM
700 PM MDT WED MAY 23 2018

NOTE: "FAIR" MEANS FEW OR NO CLOUDS BELOW 12,000 FEET AGL WITH NO
       SIGNIFICANT WEATHER OR OBSTRUCTIONS TO VISION.

      THIS PRODUCT IS RELEASED AS TWO VERSIONS.  ONE VERSION NEAR
      THE TOP OF THE HOUR CONTAINING PRELIMINARY DATA FROM ALBUQUERQUE
      AND OTHER STATIONS.  A FINAL VERSION WITH ADDITIONAL DATA IS
      ISSUED ABOUT 10 MINUTES AFTER THE HOUR.

NMZ501-503-504-510>518-240200-
NORTHWEST PLATEAU/NORTHCENTRAL MOUNTAINS

CITY           SKY/WX    TMP DP  RH WIND       PRES   REMARKS
FARMINGTON     FAIR      80  18  10 W15G21    29.96S
LOS ALAMOS     FAIR      74  18  12 SW14G23   30.13R
SANTA FE       FAIR      78  19  11 W13       30.05S
TAOS           FAIR      75  19  12 W18G26    30.13R
ANGEL FIRE     FAIR      59  48  65 S17       30.23R

$$
NMZ402-403-502-505>509-240200-
WESTCENTRAL MOUNTAINS/SOUTHWEST MOUNTAINS

CITY           SKY/WX    TMP DP  RH WIND       PRES   REMARKS
GALLUP         FAIR      77  15   9 SW15      30.06S
GRANTS         FAIR      79  16   9 SW10G18   30.06S
SILVER CITY    FAIR      81  22  11 SW16      30.05S

$$
NMZ407-409-411-412-240200-
SOUTHERN DESERTS

CITY           SKY/WX    TMP DP  RH WIND       PRES   REMARKS
DEMING         FAIR      87  29  12 W12       29.95S
LAS CRUCES     FAIR      88  19   8 SW9       29.98R
ALAMOGORDO     FAIR      88  23   9 S12       29.96R
T OR C         FAIR      86  20   9 SW17      29.95F

$$
NMZ519>523-240200-
CENTRAL VALLEYS/CENTRAL HIGHLANDS

CITY           SKY/WX    TMP DP  RH WIND       PRES   REMARKS
ALBUQUERQUE    FAIR      84  18   8 S16       29.97F
DOUBLE EAGLE   MOSUNNY   81  19  10 SE14      30.01F
MORIARTY ARPT  FAIR      81  21  11 SW14      30.07S
CLINES CORNERS FAIR      73  42  32 S9        30.14R
BELEN          FAIR      83  14   7 S20       29.97R
SOCORRO        FAIR      85  17   8 S14G21    29.95S

$$
NMZ524>526-539-540-240200-
SOUTHCENTRAL MOUNTAINS

CITY           SKY/WX    TMP DP  RH WIND       PRES   REMARKS
RUIDOSO        NOT AVBL

$$
NMZ527>531-240200-
NORTHEAST HIGHLANDS/NORTHEAST PLAINS

CITY           SKY/WX    TMP DP  RH WIND       PRES   REMARKS
LAS VEGAS      FAIR      61  54  77 S10       30.15R
RATON          FAIR      64  55  72 SW10      30.10S
CLAYTON        FAIR      70  60  70 S12       30.06R

$$
NMZ532>537-240200-
EASTCENTRAL PLAINS

CITY           SKY/WX    TMP DP  RH WIND       PRES   REMARKS
SANTA ROSA     FAIR      78  54  43 SE18G24   30.03R
TUCUMCARI      PTSUNNY   81  60  48 S21G26    29.98R THUNDER
CANNON AFB     TSTM      75  61  60 SE13      30.05R
CLOVIS AIRPORT FAIR      75  60  59 SE13      30.05R

$$
NMZ028-029-538-240200-
SOUTHEAST PLAINS

CITY           SKY/WX    TMP DP  RH WIND       PRES   REMARKS
ROSWELL        FAIR      75  56  51 SE28G40   29.98R
ARTESIA        FAIR      75  55  50 E14G22    30.03S
CARLSBAD       FAIR      75  53  46 SE12G22   29.98R
HOBBS          TSTM      63  55  77 NW14      30.13R


$$




USA.gov is the U.S. government's official web portal to all federal, state and local government web resources and services.